[[{"header":{"parameterUnit":"m.s-1","parameterCategory":1,"la1":30.2991,"la2":30.254,"lo1":-89.0895,"lo2":-89.0444,"dx":0.0017,"dy":0.0017,"nx":28,"ny":28,"refTime":"2023-02-12T09:00:00:Z","depth":0,"parameterNumber":2,"parameterNumberName":"U-component_of_WINDS"},"data":[0,0,0,0,0,0,0,0,0,0,0,0,0,0,0,0,0,0,0,0,0,0,0,0,0,0,0,0,0,0,0,0,0,0,0,0,0,0,0,0,0,0,0,0,0,0,0,0,0,0,0,0,0,0,0,0,0,0,0.5817,0.5819,0,0.593,0.5931,0.5933,0.5968,0.5967,0.5966,0.5966,0.6081,0.6085,0.6088,0,0,0,0,0,0,0,0,0,0,0,0,0,0.5631,0.5635,0.5817,0.5819,0.582,0.593,0.5931,0.5933,0.5968,0.5967,0.5966,0.5966,0.608,0.6084,0.6089,0,0,0,0,0,0,0,0,0,0,0,0,0,0.5725,0.5636,0.5817,0.5851,0.5855,0.593,0.5931,0.5933,0.5968,0.5967,0.5966,0.5965,0.6079,0.6084,0.6089,0.6139,0,0,0.6106,0.6108,0,0,0,0,0,0,0,0,0.572,0.5732,0.5844,0.5849,0.5853,0.5934,0.5908,0.6002,0.5968,0.5925,0.5966,0.5965,0.6033,0.6042,0.6065,0.6144,0.6149,0.6106,0.6109,0.6112,0.6113,0,0,0,0,0,0,0,0.5713,0.5727,0.5862,0.5846,0.5851,0.586,0.5872,0.5926,0.5982,0.5929,0.5931,0.5944,0.6035,0.606,0.6068,0.6151,0.6106,0.6111,0.6114,0.6116,0.6275,0.6276,0,0,0,0,0,0,0.5701,0.5721,0.5858,0.5865,0.5783,0.5864,0.5878,0.5909,0.5982,0.5992,0.5945,0.5945,0.6051,0.6062,0.6072,0.6134,0.6112,0.6117,0.612,0.6274,0.6275,0.6276,0,0,0,0,0,0,0.5697,0.5713,0.5854,0.5794,0.5813,0.5868,0.5903,0.5912,0.5936,0.5994,0.6004,0.596,0.6051,0.6064,0.6121,0.6138,0.6119,0.6124,0.6272,0.6274,0.6275,0.6258,0,0,0,0,0,0,0.5691,0.5711,0.5731,0.5794,0.5816,0.5902,0.5904,0.5914,0.5945,0.5947,0.601,0.602,0.6051,0.6113,0.6127,0.6145,0.6128,0.6271,0.6273,0.6275,0.6257,0.6259,0.626,0,0,0,0,0,0.5685,0.5722,0.5732,0.5748,0.5841,0.5903,0.5915,0.595,0.5946,0.5966,0.6003,0.6018,0.6134,0.6119,0.6134,0.6155,0.627,0.6273,0.6275,0.6257,0.6258,0.626,0,0,0,0,0,0,0.5659,0.5731,0.5742,0.5801,0.5845,0.5908,0.5934,0.5951,0.5997,0.5996,0.6038,0.6052,0.6105,0.6136,0.6117,0.6206,0.6203,0.6208,0.6184,0.6186,0.6187,0.6178,0.6133,0,0,0,0,0,0.566,0.5703,0.5764,0.581,0.5831,0.5879,0.5907,0.593,0.5977,0.5996,0.6038,0.6083,0.613,0.616,0.6206,0.6262,0.6276,0.6284,0.6285,0.6286,0.629,0.632,0.6324,0.6283,0.6283,0.6283,0,0,0.5662,0.5707,0.5732,0.5806,0.5843,0.5887,0.5895,0.5941,0.5974,0.6003,0.6059,0.6091,0.6145,0.6201,0.6228,0.6228,0.6304,0.6288,0.6289,0.6292,0.6323,0.6327,0.633,0.6285,0.6285,0.6284,0,0,0.569,0.5728,0.577,0.5807,0.5863,0.5894,0.5904,0.5965,0.5987,0.6043,0.6066,0.6106,0.6186,0.6222,0.6252,0.6292,0.6307,0.6306,0.6312,0.6342,0.6345,0.6348,0.6361,0.6366,0.6309,0.6309,0.6309,0,0.5686,0.5753,0.579,0.5835,0.5866,0.5895,0.5937,0.5971,0.6039,0.606,0.6059,0.6159,0.6197,0.6262,0.6271,0.6294,0.6306,0.6298,0.6341,0.6345,0.6348,0.6361,0.6366,0.6309,0.6309,0.6309,0.6309,0,0.5745,0.5792,0.5819,0.5883,0.5918,0.5961,0.6004,0.6034,0.6054,0.6085,0.6142,0.6189,0.6244,0.6261,0.6281,0.6329,0.6327,0.6333,0.6331,0.6351,0.6364,0.6369,0.6308,0.6308,0.6308,0.6309,0,0,0.576,0.5843,0.5852,0.5882,0.5945,0.5981,0.6025,0.608,0.6104,0.615,0.6188,0.6254,0.626,0.6293,0.6318,0.6344,0.6371,0.6347,0.6349,0.6349,0.6425,0.6419,0.6424,0.6381,0.6383,0.6384,0.642,0,0.5794,0.5875,0.5908,0.5973,0.6016,0.6043,0.6082,0.6124,0.6154,0.6195,0.6228,0.6274,0.6279,0.6299,0.6326,0.6362,0.6387,0.636,0.6416,0.6418,0.6401,0.6432,0.6426,0.6458,0.6426,0.6426,0.6427,0,0.5845,0.5891,0.596,0.6017,0.6036,0.607,0.6122,0.616,0.6209,0.6229,0.6265,0.6288,0.6335,0.633,0.6395,0.6375,0.6401,0.6422,0.6424,0.643,0.6423,0.6438,0.647,0.6474,0.6436,0.6435,0.6434,0,0.5847,0.5926,0.5977,0.6001,0.607,0.6093,0.6122,0.617,0.62,0.6245,0.6265,0.6315,0.6343,0.6381,0.6416,0.641,0.6477,0.6476,0.6495,0.6494,0.6508,0.6506,0.6543,0.6525,0.6525,0.6525,0.6525,0,0.5882,0.5923,0.5979,0.601,0.6056,0.6095,0.6139,0.6171,0.6213,0.625,0.6277,0.6312,0.6357,0.6397,0.6425,0.6474,0.6486,0.6503,0.651,0.6501,0.6498,0.6517,0.6516,0.6526,0.6526,0.6525,0.6525,0,0.5892,0.5931,0.5989,0.6048,0.6064,0.6096,0.6146,0.6178,0.6209,0.6256,0.6269,0.6318,0.6366,0.6406,0.6469,0.6488,0.6539,0.6547,0.6522,0.6526,0.6542,0.654,0.6592,0.6601,0.6577,0.6577,0.6578,0,0.5911,0.5943,0.6006,0.6033,0.6062,0.6105,0.6136,0.6175,0.6205,0.6263,0.6287,0.6337,0.6379,0.6456,0.6497,0.6545,0.6554,0.6569,0.6562,0.6551,0.6554,0.6551,0.6554,0.657,0.657,0.657,0.657,0,0.5941,0.5958,0.6002,0.6051,0.6087,0.6128,0.617,0.619,0.6237,0.627,0.632,0.6352,0.6417,0.6466,0.6519,0.6549,0.6567,0.6572,0.6579,0.6569,0.6553,0.6561,0.6524,0.6571,0.657,0.657,0.657,0.657,0.5956,0.5985,0.6033,0.608,0.6116,0.6154,0.6186,0.622,0.6263,0.6318,0.6338,0.6389,0.6436,0.6509,0.6539,0.6579,0.6581,0.6591,0.6593,0.6595,0.6593,0.6547,0.6589,0.6589,0.6589,0.6589,0.6589,0,0.5986,0.6018,0.6061,0.6118,0.6155,0.6168,0.6215,0.6245,0.6289,0.6331,0.6372,0.6429,0.6477,0.6521,0.6571,0.6595,0.6604,0.6606,0.6605,0.6611,0.659,0.6578,0.6598,0.6598,0.6598,0.6598,0.6598,0.6598,0.6006,0.6055,0.6079,0.6146,0.6178,0.6228,0.6253,0.6288,0.6322,0.6384,0.6424,0.6453,0.6496,0.6549,0.6593,0.6605,0.6622,0.6622,0.6635,0.6614,0.6613,0.6611,0.6601,0.6625,0.6625,0.6654,0.6654,0.6654]},{"header":{"parameterUnit":"m.s-1","parameterCategory":1,"la1":30.2991,"la2":30.254,"lo1":-89.0895,"lo2":-89.0444,"dx":0.0017,"dy":0.0017,"nx":28,"ny":28,"refTime":"2023-02-12T09:00:00:Z","depth":0,"parameterNumber":3,"parameterNumberName":"V-component_of_WINDS"},"data":[0,0,0,0,0,0,0,0,0,0,0,0,0,0,0,0,0,0,0,0,0,0,0,0,0,0,0,0,0,0,0,0,0,0,0,0,0,0,0,0,0,0,0,0,0,0,0,0,0,0,0,0,0,0,0,0,0,0,2.8251,2.8251,0,2.821,2.8209,2.8209,2.8124,2.8122,2.8121,2.8119,2.8076,2.8076,2.8077,0,0,0,0,0,0,0,0,0,0,0,0,0,2.8257,2.8257,2.8251,2.8251,2.825,2.821,2.8209,2.8208,2.8124,2.8122,2.812,2.8118,2.8076,2.8076,2.8077,0,0,0,0,0,0,0,0,0,0,0,0,0,2.8239,2.8257,2.8251,2.8203,2.8199,2.821,2.8209,2.8208,2.8125,2.8122,2.812,2.8117,2.8076,2.8076,2.8077,2.8131,0,0,2.8079,2.8079,0,0,0,0,0,0,0,0,2.824,2.8239,2.8211,2.8207,2.8201,2.8169,2.8195,2.8183,2.8125,2.8153,2.8119,2.8116,2.8109,2.8107,2.8105,2.8129,2.8128,2.8079,2.8079,2.808,2.808,0,0,0,0,0,0,0,2.8241,2.824,2.8235,2.8211,2.8205,2.8183,2.8178,2.8192,2.8146,2.815,2.8144,2.814,2.8106,2.8104,2.8103,2.8127,2.8079,2.808,2.808,2.808,2.8191,2.8194,0,0,0,0,0,0,2.825,2.8242,2.8236,2.8234,2.8215,2.8185,2.8179,2.8182,2.8145,2.8137,2.8142,2.8136,2.8104,2.8102,2.8101,2.816,2.808,2.808,2.8081,2.8189,2.8192,2.8195,0,0,0,0,0,0,2.825,2.825,2.8238,2.8236,2.8233,2.8188,2.8192,2.8183,2.8181,2.8139,2.813,2.8149,2.8102,2.81,2.8124,2.8158,2.8081,2.8081,2.8186,2.819,2.8193,2.8281,0,0,0,0,0,0,2.8251,2.8251,2.8271,2.8237,2.8233,2.8262,2.8194,2.8184,2.8182,2.8174,2.8143,2.8136,2.81,2.8123,2.8125,2.8157,2.8082,2.8183,2.8188,2.8192,2.8275,2.8288,2.8298,0,0,0,0,0,2.8251,2.8298,2.8273,2.8273,2.8258,2.8264,2.8262,2.822,2.8185,2.8205,2.8178,2.8137,2.8154,2.8127,2.8127,2.8161,2.818,2.8186,2.8192,2.827,2.8285,2.8298,0,0,0,0,0,0,2.8338,2.8293,2.8264,2.8302,2.8288,2.825,2.8274,2.8238,2.8233,2.8226,2.8174,2.8168,2.8198,2.8182,2.8152,2.821,2.816,2.8167,2.822,2.8234,2.8245,2.8248,2.8082,0,0,0,0,0,2.8362,2.8371,2.8331,2.8368,2.8362,2.832,2.8321,2.8289,2.8272,2.8266,2.8241,2.8226,2.8227,2.823,2.8229,2.8272,2.8263,2.8295,2.8307,2.8317,2.8323,2.8342,2.8355,2.8214,2.8214,2.8214,0,0,2.8411,2.8387,2.8396,2.8385,2.837,2.838,2.8315,2.8329,2.8335,2.8268,2.8288,2.8269,2.8249,2.8282,2.8295,2.8269,2.836,2.8324,2.8332,2.8333,2.8349,2.8363,2.8375,2.8218,2.8217,2.8216,0,0,2.8505,2.8489,2.8516,2.8503,2.8481,2.8452,2.8459,2.8426,2.8411,2.843,2.838,2.8386,2.8391,2.8378,2.8372,2.8459,2.842,2.846,2.8521,2.854,2.8551,2.8561,2.859,2.8601,2.8466,2.8466,2.8466,0,2.8568,2.8581,2.8536,2.8552,2.8547,2.8487,2.8514,2.8503,2.8482,2.848,2.8451,2.8454,2.8436,2.8464,2.8485,2.8483,2.8488,2.8463,2.8553,2.8562,2.8571,2.8598,2.8609,2.8471,2.8471,2.847,2.847,0,2.866,2.867,2.8695,2.8675,2.8674,2.8696,2.8652,2.8656,2.8625,2.8599,2.8618,2.8594,2.8587,2.8591,2.8561,2.8615,2.8599,2.8563,2.8512,2.859,2.8614,2.8625,2.8478,2.8476,2.8475,2.8474,0,0,2.8808,2.8762,2.8772,2.8761,2.8732,2.8738,2.8757,2.8749,2.8753,2.874,2.8753,2.8758,2.8723,2.8716,2.8684,2.8701,2.8769,2.8662,2.8661,2.8681,2.8824,2.8851,2.8864,2.8743,2.8745,2.8746,2.8825,0,2.8894,2.8923,2.8882,2.892,2.8927,2.8868,2.8884,2.8867,2.8843,2.8845,2.8818,2.8821,2.8776,2.8771,2.8786,2.8758,2.8797,2.8752,2.8754,2.8754,2.876,2.8877,2.8906,2.8982,2.8835,2.8836,2.8838,0,2.8999,2.8991,2.903,2.8996,2.8997,2.9012,2.9001,2.9004,2.8983,2.8964,2.8956,2.8917,2.8931,2.8882,2.89,2.887,2.8868,2.8854,2.8856,2.8854,2.88,2.8877,2.9005,2.9016,2.8853,2.8852,2.885,0,2.9102,2.91,2.9122,2.9116,2.9077,2.9089,2.9073,2.905,2.9047,2.9037,2.9035,2.9027,2.9022,2.9016,2.8975,2.8944,2.8997,2.8946,2.8981,2.8982,2.8994,2.8994,2.9123,2.8995,2.8995,2.8995,2.8995,0,2.9202,2.9228,2.9168,2.9182,2.9208,2.9159,2.9186,2.9165,2.9144,2.9151,2.9101,2.9109,2.9055,2.9057,2.9025,2.9043,2.9042,2.9026,2.9017,2.903,2.9032,2.9028,2.9021,2.8998,2.8997,2.8997,2.8996,0,2.9321,2.9282,2.9302,2.9264,2.9255,2.9276,2.9242,2.9253,2.9224,2.9235,2.9234,2.919,2.9189,2.9148,2.9139,2.9117,2.9149,2.9131,2.9156,2.915,2.9187,2.9183,2.9316,2.933,2.9196,2.9197,2.9198,0,2.9387,2.9405,2.9368,2.937,2.9356,2.936,2.9356,2.9309,2.9307,2.9283,2.9296,2.9291,2.9285,2.9286,2.9253,2.9245,2.9225,2.9272,2.9224,2.9236,2.9224,2.9223,2.9224,2.9283,2.9284,2.9286,2.9287,0,2.9508,2.9487,2.9485,2.9475,2.9472,2.9463,2.9449,2.9453,2.9401,2.9401,2.94,2.9395,2.9384,2.938,2.9365,2.9348,2.9308,2.9302,2.931,2.9323,2.9336,2.9328,2.9182,2.93,2.9298,2.9297,2.9297,2.9296,2.9601,2.9614,2.9589,2.9588,2.9572,2.9561,2.9568,2.954,2.9538,2.9526,2.9498,2.9501,2.9477,2.9453,2.944,2.944,2.9416,2.9427,2.943,2.9433,2.944,2.9337,2.9437,2.9437,2.9437,2.9436,2.9436,0,2.9718,2.9699,2.9698,2.9681,2.9679,2.9642,2.9624,2.9625,2.9628,2.961,2.9604,2.9601,2.9595,2.9561,2.9551,2.9558,2.9539,2.9557,2.9555,2.9552,2.9463,2.9456,2.9572,2.9572,2.9572,2.9572,2.9572,2.9572,2.9779,2.9798,2.9774,2.9784,2.9764,2.9766,2.9759,2.9748,2.9732,2.9732,2.9727,2.9704,2.9678,2.9666,2.9659,2.9648,2.9647,2.967,2.9654,2.9571,2.9558,2.9546,2.9539,2.967,2.9671,2.9742,2.9743,2.9744]}]]